Home   Weather   French Lick   Past weeks

Flag for USA Past Weather in French Lick, Indiana, USA — Yesterday and Last 2 Weeks

Now
88 °F

Warm.


Feels Like: 89 °F
Forecast: 67 / 88 °F
Wind: No wind

Location: Huntingburg Airport

Current Time: Sep 25, 2016 at 3:07:57 PM

Latest Report: Sep 25, 2016 at 2:35 PM


Visibility: 10 mi

Pressure: 30.06 "Hg

Humidity: 46%

Dew Point: 64 °F

Location of French LickLocation

Past Weather in French Lick — Graph

°F

French Lick Temperature Yesterday

Maximum temperature yesterday: 90 °F (at 4:15 PM)
Minimum temperature yesterday: 63 °F (at 7:15 AM)
Average temperature yesterday: 75 °F

High & Low Weather Summary for the Past Weeks

 TemperatureHumidityPressure
High90 °F (Sep 14, 3:35 PM)94% (Sep 11, 6:55 AM)30.25 "Hg (Sep 11, 6:55 AM)
Low52 °F (Sep 12, 7:35 AM)33% (Sep 19, 4:55 PM)29.91 "Hg (Sep 10, 1:55 PM)
Average72 °F72%30.09 "Hg
* Reported Sep 10 1:15 PM — Sep 25 1:55 PM, French Lick, Weather by CustomWeather, © 2016

Note: Actual official high and low records may vary slightly from our data, if they occured in-between our weather recording intervals... More about our weather records

Advertising

French Lick Weather History for the Previous 24 Hours

Scroll right to see more
 ConditionsComfort  
Time TempWeatherWind HumidityBarometerVisibility
1:55 PM
Sun, Sep 25
88 °FWarm.3 mph46%30.07 "Hg10 mi
1:35 PM88 °FWarm.6 mph49%30.08 "Hg10 mi
1:15 PM88 °FWarm.5 mph49%30.08 "Hg10 mi
12:55 PM88 °FWarm.5 mph52%30.09 "Hg10 mi
12:35 PM86 °FWarm.5 mph55%30.09 "Hg10 mi
12:15 PM84 °FWarm.No wind62%30.10 "Hg10 mi
11:55 AM82 °FWarm.No wind66%30.11 "Hg10 mi
11:35 AM82 °FWarm.3 mph66%30.11 "Hg6 mi
11:15 AM81 °FWarm.5 mph70%30.11 "Hg10 mi
10:55 AM79 °FWarm.3 mph74%30.11 "Hg10 mi
10:35 AM79 °FWarm.6 mph70%30.11 "Hg10 mi
10:15 AM75 °FMild.7 mph83%30.11 "Hg10 mi
9:55 AM73 °FMild.3 mph83%30.11 "Hg9 mi
9:35 AM72 °FMild.5 mph83%30.11 "Hg9 mi
9:15 AM70 °FMild.No wind88%30.11 "Hg7 mi
8:55 AM66 °FMild.No wind94%30.11 "Hg3 mi
8:35 AM64 °FMild.No wind94%30.11 "Hg1 mi
8:15 AM64 °FMild.No wind88%30.10 "Hg1 mi
7:55 AM64 °FMild.No wind94%30.10 "Hg0 mi
7:35 AM64 °FMild.No wind94%30.09 "Hg0 mi
7:15 AM64 °FMild.No wind94%30.09 "Hg1 mi
6:55 AM64 °FMild.No wind94%30.09 "Hg1 mi
6:35 AM64 °FMild.No wind94%30.09 "Hg1 mi
6:15 AM64 °FMild.No wind94%30.10 "Hg1 mi
5:55 AM66 °FMild.No wind88%30.09 "Hg1 mi
5:35 AM64 °FMild.No wind94%30.09 "Hg2 mi
5:15 AM66 °FMild.No wind88%30.09 "Hg2 mi
4:55 AM66 °FMild.No wind88%30.09 "Hg3 mi
4:35 AM70 °FMild.No wind83%30.08 "Hg10 mi
4:15 AM70 °FMild.No wind83%30.09 "Hg8 mi
3:55 AM68 °FMild.3 mph88%30.09 "Hg5 mi
3:35 AM68 °FMild.3 mph88%30.09 "Hg8 mi
3:15 AM66 °FMild.5 mph88%30.10 "Hg7 mi
2:55 AM68 °FMild.No wind88%30.10 "Hg10 mi
2:35 AM70 °FMild.3 mph83%30.10 "Hg10 mi
2:15 AM70 °FMild.5 mph83%30.10 "Hg10 mi
1:55 AM70 °FMild.5 mph83%30.10 "Hg10 mi
1:35 AM70 °FMild.3 mph83%30.10 "Hg10 mi
1:15 AM72 °FMild.3 mph78%30.09 "Hg10 mi
12:55 AM72 °FMild.3 mph78%30.09 "Hg10 mi
12:35 AM72 °FMild.3 mph78%30.09 "Hg10 mi
12:15 AM72 °FMild.5 mph78%30.09 "Hg10 mi
11:55 PM
Sat, Sep 24
72 °FMild.3 mph78%30.08 "Hg10 mi
11:35 PM73 °FMild.3 mph74%30.08 "Hg10 mi
11:15 PM73 °FMild.3 mph74%30.08 "Hg10 mi
10:55 PM73 °FMild.No wind74%30.08 "Hg10 mi
10:35 PM73 °FMild.No wind74%30.08 "Hg10 mi
10:15 PM73 °FMild.3 mph74%30.08 "Hg10 mi
9:55 PM73 °FMild.8 mph69%30.07 "Hg10 mi
9:35 PM72 °FMild.7 mph78%30.07 "Hg10 mi
9:15 PM75 °FMild.3 mph65%30.07 "Hg10 mi
8:55 PM77 °FWarm.5 mph61%30.06 "Hg10 mi
8:35 PM79 °FWarm.5 mph58%30.06 "Hg10 mi
8:15 PM79 °FWarm.5 mph58%30.06 "Hg10 mi
7:55 PM81 °FWarm.5 mph58%30.06 "Hg10 mi
7:35 PM82 °FWarm.5 mph55%30.07 "Hg10 mi
6:55 PM82 °FWarm.5 mph55%30.06 "Hg10 mi
6:35 PM84 °FWarm.6 mph51%30.07 "Hg10 mi
6:15 PM86 °FWarm.5 mph49%30.07 "Hg10 mi
5:55 PM86 °FWarm.6 mph49%30.06 "Hg10 mi
5:35 PM86 °FWarm.7 mph49%30.07 "Hg10 mi
5:15 PM88 °FWarm.7 mph46%30.07 "Hg10 mi
4:55 PM88 °FWarm.No wind43%30.07 "Hg10 mi
4:35 PM90 °FHot.5 mph41%30.07 "Hg10 mi
4:15 PM90 °FHot.No wind43%30.08 "Hg10 mi
3:55 PM88 °FWarm.No wind46%30.08 "Hg10 mi
3:35 PM86 °FWarm.No wind49%30.08 "Hg10 mi
3:15 PM86 °FWarm.No wind49%30.09 "Hg10 mi
Weather by CustomWeather, © 2016

See weather overviewHow to use our weather pages